SILO ALERT LOG


Silo ID Alert Type Alert Message Silo Type Points Depth (mm) Strength Temperature (°C) Humidity (%) Height (mm) Volume (㎥) Weight (t) Flag Time
WJWJR05 Humidity 습도센서 측정값이 80% 초과 58 7690 2457 25.7 89.8 29 3.393 2.145 0 2026-08-27 09:25:45.000
WJWJR01 Humidity 습도센서 측정값이 80% 초과 76 7670 1117 24.8 91.3 -30 -3.393 0 0 2026-08-27 05:26:00.000
WJWJR05 Humidity 습도센서 측정값이 80% 초과 56 7780 2440 25.2 88.3 -60 -6.786 0 0 2026-08-27 05:25:44.000
WJWJR01 Humidity 습도센서 측정값이 80% 초과 76 7650 1091 25.5 89.4 -10 -1.131 0 0 2026-08-27 01:25:58.000
WJWJR05 Humidity 습도센서 측정값이 80% 초과 54 7820 2463 26.1 86.2 -100 -11.31 0 0 2026-08-27 01:25:41.000
WJWJR01 Humidity 습도센서 측정값이 80% 초과 83 7710 1071 27.3 84.2 -70 -7.917 0 0 2026-08-26 21:25:58.000
WJWJR05 Humidity 습도센서 측정값이 80% 초과 59 7910 2463 27.9 82.4 -190 -21.488 0 0 2026-08-26 21:25:45.000
WJWJR05 Humidity 습도센서 측정값이 80% 초과 56 7770 2482 30.4 83.5 -49 -5.655 0 0 2026-08-26 13:25:48.000
WJWJR01 Humidity 습도센서 측정값이 80% 초과 77 7680 1072 26.8 89.3 -40 -4.524 0 0 2026-08-26 09:26:09.000
WJWJR05 Humidity 습도센서 측정값이 80% 초과 58 7830 2458 26.5 91.1 -110 -12.441 0 0 2026-08-26 09:25:49.000
WJWJR01 Humidity 습도센서 측정값이 80% 초과 84 7670 1081 24.2 91.4 -30 -3.393 0 0 2026-08-26 05:25:59.000
WJWJR05 Humidity 습도센서 측정값이 80% 초과 59 7770 2449 24.8 88.2 -49 -5.655 0 0 2026-08-26 05:25:43.000
WJWJR01 Humidity 습도센서 측정값이 80% 초과 77 7680 1066 25.2 89.3 -40 -4.524 0 0 2026-08-26 01:25:59.000
WJWJR05 Humidity 습도센서 측정값이 80% 초과 55 7660 2495 26 85.7 59 6.786 4.29 0 2026-08-26 01:25:51.000
WJWJR01 Humidity 습도센서 측정값이 80% 초과 74 7690 1084 27.4 83.6 -50 -5.655 0 0 2026-08-25 21:26:01.000
WJWJR05 Humidity 습도센서 측정값이 80% 초과 54 7760 2524 28.2 81.5 -40 -4.524 0 0 2026-08-25 21:25:42.000
WJWJR01 Humidity 습도센서 측정값이 80% 초과 77 7650 1065 29.7 90.3 -10 -1.131 0 0 2026-08-25 13:26:04.000
WJWJR05 Humidity 습도센서 측정값이 80% 초과 58 7890 2457 29.2 91.8 -169 -19.227 0 0 2026-08-25 13:25:48.000
WJWJR01 Humidity 습도센서 측정값이 80% 초과 77 7680 1086 24.6 90.6 -40 -4.524 0 0 2026-08-25 09:26:01.000
WJWJR05 Humidity 습도센서 측정값이 80% 초과 53 8200 2477 25 87.1 -480 -54.287 0 0 2026-08-25 09:25:45.000

[첫 페이지] [1] [2] [3] [4] 5 [6] [7] [8] [9] [마지막 페이지]